User: anonymous   Login
Location: Unspecified
(0.0000°N, 0.0000°E)
Time: 02:57:05
(UTC+00:00)
Language:

STARLINK-30931 - Orbit

View from above orbital plane
View from above orbital plane
View from above satellite
View from above satellite

Ground track
Ground track

The orbit is defined by the following mean orbital elements,

1 58413U          26145.56034367 +.00000000 +00000-0 +40505-4 0 00004
2 58413  43.0044 327.1684 0001353 258.8702 101.1998 15.27572704    02
Epoch (UTC): 25 May 2026 13:26:53
Eccentricity: 0.0001353
inclination: 43.0044°
perigee height: 482 km
apogee height: 484 km
right ascension of ascending node: 327.1684°
argument of perigee: 258.8702°
revolutions per day: 15.27572704
mean anomaly at epoch: 101.1998°

The dashed part of the orbit path shows where the satellite is in the earth's shadow,  

DLR